Location: A�t �Alizem
(31.2076°N, 8.7872°W)
Time: 16:02:40
(UTC+00:00)

Cosmos 2369 Rocket - Pass Details

Date: 27 November 2020
Orbit: 829 x 852 km, 71.0° (Epoch: 25 January)

Event Time Altitude Azimuth Distance (km) Brightness Sun altitude
Rises 18:55:14 0° 352° (N) 3,412 5.3 -17.5°
Reaches altitude 10° 18:58:03 10° 4° (N) 2,470 4.4 -18.0°
Enters shadow 19:01:33 26° 39° (NE) 1,617 3.2 -18.8°
